Regional Weather Roundup
Issued by NWS Cleveland, OH

Home | Current Version | Previous Version | Graphics & Text | Print | Product List | Glossary On
Versions: 1 2 3 4 5 6 7 8 9 10 11 12 13 14 15 16 17 18 19 20 21 22 23 24 25 26 27 28 29 30 31 32 33 34 35 36 37 38 39 40 41 42 43 44 45 46 47 48 49 50
000
ASUS41 KCLE 051910
RWRCLE
OHIO REGIONAL WEATHER ROUNDUP
NATIONAL WEATHER SERVICE WILMINGTON, OH
300 PM EDT TUE MAY 05 2015

NOTE: "FAIR" INDICATES FEW OR NO CLOUDS BELOW 12,000 FEET WITH NO
SIGNIFICANT WEATHER AND/OR OBSTRUCTIONS TO VISIBILITY.

OHZ001>008-015>018-024>027-034-035-043-044-052000-
   NORTHWEST OHIO

CITY           SKY/WX    TMP DP  RH WIND       PRES   REMARKS
DEFIANCE       CLOUDY    61  57  87 NE9       30.25F FOG
FINDLAY        CLOUDY    75  61  61 NE5       30.22F
TOLEDO EXPRESS LGT RAIN  55  51  86 E9        30.26F
TOLEDO EXEC    CLOUDY    53  47  79 NE10      30.29R
LIMA           MOSUNNY   77  60  55 SW10      30.21F
$$

OHZ009>014-019>023-028>033-038-089-052000-
   NORTHEAST OHIO

CITY           SKY/WX    TMP DP  RH WIND       PRES   REMARKS
CLE-HOPKINS    CLOUDY    68  60  75 W8        30.27S
CLE-LAKEFRONT  CLOUDY    57  53  86 NW5       30.25R FOG
CUY CO. ARPT   CLOUDY    68  64  88 N7        30.25F FOG
LORAIN-ELYRIA  CLOUDY    67  59  75 NW6       30.25S
ASHTABULA      LGT RAIN  66  62  87 SW5       30.25F FOG
AKRON-CANTON   CLOUDY    73  58  59 W6        30.26F
WOOSTER        MOSUNNY   71  60  68 NW6       30.26F
MANSFIELD      MOSUNNY   74  58  57 SW10      30.25F
YOUNGSTOWN     CLOUDY    69  60  73 SW5       30.25F HAZE
$$

OHZ042-051>053-060>062-070>072-077>081-052000-
  SOUTHWEST OHIO

CITY           SKY/WX    TMP DP  RH WIND       PRES   REMARKS
CINC-COVINGTON MOSUNNY   81  53  37 SW8       30.24F
CINC-LUNKEN    PTSUNNY   81  54  39 VRB3      30.22F
HAMILTON       SUNNY     85  52  32 SW8       30.23F
DAYTON         PTSUNNY   80  54  40 SW10      30.24F
WRIGHT-PAT AFB MOSUNNY   80  58  46 S5        30.22F
DAYTON GENERAL MOSUNNY   81  55  40 S7        30.22F
WILMINGTON     CLOUDY    78  52  40 SW9G22    30.24F
$$

OHZ036-037-039>041-045>050-054>059-063>069-073>076-082>088-052000-
  CENTRAL AND SOUTHEAST OHIO

CITY           SKY/WX    TMP DP  RH WIND       PRES   REMARKS
COLUMBUS       MOSUNNY   78  57  48 W7        30.23F
OSU AIRPORT    PTSUNNY   80  57  45 W9        30.23F
BOLTON FIELD   PTSUNNY   81  57  44 W5        30.23F
RICKENBACK AFB PTSUNNY   77  57  49 W9        30.23S
NEWARK         MOSUNNY   78  59  51 W10       30.23F
MARION         PTSUNNY   77  60  55 SW8       30.23F
LANCASTER      SUNNY     80  57  45 VRB6      30.24F
ZANESVILLE     PTSUNNY   78  56  46 NW12      30.24F
NEW PHILLY     PTSUNNY   75  61  61 CALM      30.25F
$$


USA.gov is the U.S. government's official web portal to all federal, state and local government web resources and services.